New Bern, NC

5:51 PM EDT on July 24, 2017 (GMT -0400)
Craven County Regional

Weather History for KEWN - September, 2013

Change the Weather History Date:

Saturday, September 14, 2013

  Actual Average Record
Temperature  
Mean Temperature 73 °F 75 °F  
Max Temperature 80 °F 83 °F 94 °F (1952)
Min Temperature 65 °F 66 °F 50 °F (1953)
Degree Days  
Heating Degree Days 0 0  
Month to date heating degree days 0 0  
Since 1 July heating degree days 0 0  
Cooling Degree Days 8 10  
Month to date cooling degree days 190 155  
Year to date cooling degree days 1807 1684  
Growing Degree Days 22 (Base 50)    
Moisture  
Dew Point 61 °F    
Average Humidity 68    
Maximum Humidity 84    
Minimum Humidity 51    
Precipitation  
Precipitation 0.00 in 0.21 in 3.70 in (2005)
Month to date precipitation 1.73 2.84  
Year to date precipitation 30.87 39.64  
Snow  
Snow 0.00 in - - ()
Month to date snowfall 0.0  
Since 1 July snowfall 0.0  
Snow Depth 0.00 in    
Sea Level Pressure  
Sea Level Pressure 30.00 in    
Wind  
Wind Speed 9 mph (NNE)    
Max Wind Speed 16 mph    
Max Gust Speed 21 mph    
Visibility 10 miles    
Events      
T = Trace of Precipitation, MM = Missing Value Source: NWS Daily Summary

Daily Weather History Graph

Daily Weather History Graph

Search for Another Location

Airport or City:

Trip Planner

Search our weather history database for the weather conditions in past years. The results will help you decide how hot, cold, wet, or windy it might be!

Date:

Astronomy

Sep. 14, 2013 Rise Set
Actual Time 6:50 AM EDT 7:16 PM EDT
Civil Twilight 6:25 AM EDT 7:41 PM EDT
Nautical Twilight 5:55 AM EDT 8:11 PM EDT
Astronomical Twilight 5:24 AM EDT 8:41 PM EDT
Moon 3:47 PM EDT (9/14) 1:29 AM EDT (9/14)
Length of Visible Light 13h 16m
Length of Day
12h 25m
Waxing Gibbous, 72% of the Moon is Illuminated
Sep 14
Waxing Gibbous
Sep 19
Full
Sep 26
Last Quarter
Oct 4
New
Oct 11
First Quarter

Hourly Weather History & Observations

Time (EDT) Temp. Heat Index Dew Point Humidity Pressure Visibility Wind Dir Wind Speed Gust Speed Precip Events Conditions
12:54 AM 73.0 °F - 64.9 °F 76% 29.86 in 10.0 mi ENE 6.9 mph - N/A   Clear
1:54 AM 72.0 °F - 64.0 °F 76% 29.86 in 10.0 mi ENE 8.1 mph - N/A   Clear
2:54 AM 72.0 °F - 64.0 °F 76% 29.87 in 10.0 mi NE 6.9 mph - N/A   Overcast
3:54 AM 71.1 °F - 66.0 °F 84% 29.89 in 10.0 mi NNE 4.6 mph - N/A   Overcast
4:54 AM 70.0 °F - 63.0 °F 78% 29.90 in 10.0 mi North 12.7 mph - N/A   Overcast
5:54 AM 68.0 °F - 60.1 °F 76% 29.91 in 10.0 mi NNE 10.4 mph - N/A   Mostly Cloudy
6:54 AM 66.0 °F - 57.0 °F 73% 29.94 in 10.0 mi North 12.7 mph - N/A   Overcast
7:54 AM 64.9 °F - 57.0 °F 75% 29.97 in 10.0 mi North 13.8 mph - N/A   Overcast
8:54 AM 66.0 °F - 57.0 °F 73% 29.99 in 10.0 mi North 15.0 mph 19.6 mph N/A   Mostly Cloudy
9:54 AM 70.0 °F - 59.0 °F 68% 30.01 in 10.0 mi NNE 10.4 mph - N/A   Partly Cloudy
10:54 AM 73.9 °F - 60.1 °F 62% 30.02 in 10.0 mi North 12.7 mph - N/A   Clear
11:54 AM 75.0 °F - 60.1 °F 60% 30.02 in 10.0 mi North 15.0 mph - N/A   Clear
12:54 PM 77.0 °F - 61.0 °F 58% 30.04 in 10.0 mi NNE 10.4 mph - N/A   Clear
1:54 PM 78.1 °F - 61.0 °F 56% 30.03 in 10.0 mi NNE 11.5 mph 19.6 mph N/A   Clear
2:54 PM 80.1 °F 81.1 °F 61.0 °F 52% 30.02 in 10.0 mi NNE 8.1 mph - N/A   Clear
3:54 PM 79.0 °F - 61.0 °F 54% 30.02 in 10.0 mi North 6.9 mph - N/A   Clear
4:54 PM 78.1 °F - 62.1 °F 58% 30.03 in 10.0 mi North 6.9 mph - N/A   Overcast
5:54 PM 77.0 °F - 61.0 °F 58% 30.04 in 10.0 mi NNE 9.2 mph - N/A   Overcast
6:54 PM 75.0 °F - 61.0 °F 62% 30.06 in 6.0 mi NE 6.9 mph - N/A   Haze
7:54 PM 73.0 °F - 63.0 °F 71% 30.08 in 10.0 mi ENE 5.8 mph - N/A   Mostly Cloudy
8:54 PM 71.1 °F - 63.0 °F 75% 30.11 in 10.0 mi ENE 8.1 mph - N/A   Clear
9:54 PM 70.0 °F - 62.1 °F 76% 30.13 in 10.0 mi ENE 5.8 mph - N/A   Clear
10:54 PM 69.1 °F - 62.1 °F 78% 30.14 in 10.0 mi ENE 8.1 mph - N/A   Clear
11:54 PM 68.0 °F - 62.1 °F 81% 30.14 in 10.0 mi ENE 8.1 mph - N/A   Clear